Overview Statistics Trail Chart Weather Telemetry Raw packets
 

This is the latest recevied weather packets stored in our database for station/object WP3OF. If no packets are shown the sender has not sent any weather packets the latest 10 day(s).

<< 104 105 106 107 108 109 110 >>
Time Temp. Humidity Pressure Rain* Wind** Luminosity Snow
1787846139 28.33° C 79% 1018.7 hPa 0 mm - - -
1787845834 28.89° C 79% 1018.9 hPa 0 mm - - -
1787845530 28.89° C 78% 1019.1 hPa 0 mm - - -
1787845224 28.33° C 80% 1018.9 hPa 0 mm - - -
1787844915 28.89° C 76% 1018.9 hPa 0 mm - - -
1787844615 28.33° C 80% 1019.1 hPa 0 mm - - -
1787844309 28.33° C 80% 1018.8 hPa 0 mm - - -
1787844009 28.89° C 80% 1019.2 hPa 0 mm - - -
1787843709 28.89° C 77% 1019.1 hPa 0 mm - - -
1787843404 29.44° C 78% 1019.1 hPa 0 mm - - -
1787843101 28.33° C 81% 1019.2 hPa 0 mm - - -
1787842800 28.89° C 80% 1019.3 hPa 0 mm - - -
1787842496 28.89° C 80% 1019.1 hPa 0 mm - - -
1787842195 28.89° C 79% 1019.2 hPa 0 mm - - -
1787841895 28.89° C 79% 1019.1 hPa 0 mm - - -
1787841591 28.89° C 80% 1019 hPa 0 mm - - -
1787841290 28.89° C 78% 1019.1 hPa 0 mm - - -
1787840985 28.89° C 76% 1019.2 hPa 0 mm - - -
1787840681 28.89° C 77% 1019.2 hPa 0 mm - - -
1787840371 28.89° C 75% 1019.3 hPa 0 mm - - -
1787840066 28.89° C 76% 1019.1 hPa 0 mm - - -
1787839761 28.89° C 76% 1019.3 hPa 0 mm - - -
1787839455 28.89° C 77% 1019 hPa 0 mm - - -
1787839155 28.89° C 74% 1019.1 hPa 0 mm - - -
1787838853 28.89° C 75% 1019.1 hPa 0 mm - - -

* Rain latest hour (hover to see other rain measurements)
** Current wind speed in m/s (hover to see current wind gust speed)